Theta_e
343 345 346 345 344 343 342 338 336 334 331 330 334 338 338 337 331 327 322 321 322 323 324 327 330 333 333 333 334 336 336 335 332 332 333 331 327 327 319 318 315 308 306
335 336 337 338 338 338 338 336 335 330 331 334 336 335 332 329 326 322 321 321 322 322 321 322 323 325 325 326 334 334 334 334 334 331 331 327 326 322 320 316 311 307 305
329 335 335 336 338 336 335 334 334 333 329 327 327 326 326 324 322 322 322 321 321 319 318 318 318 319 323 325 327 331 333 332 334 333 331 328 322 319 316 312 310 306 305
321 321 325 329 334 336 333 330 328 329 329 328 327 327 326 324 323 323 322 321 320 319 319 319 319 319 320 326 328 330 331 332 332 333 332 328 323 315 315 310 308 306 306
319 319 319 320 321 331 334 334 332 330 328 328 328 327 326 325 324 323 322 321 321 321 321 321 320 319 320 318 316 315 316 328 331 332 331 326 320 314 313 310 308 306 306
318 318 318 317 318 319 320 329 334 333 331 330 329 328 327 326 325 324 323 323 322 322 322 322 321 320 321 319 318 318 317 322 329 331 331 328 323 319 315 312 309 307 307
319 318 317 317 318 318 317 318 319 325 331 330 329 328 327 326 325 325 325 324 324 324 323 323 322 322 321 319 320 319 319 317 320 330 331 330 326 324 318 313 311 310 309
318 318 317 317 317 317 316 317 318 318 319 325 326 326 326 326 326 326 326 326 326 325 324 324 324 322 321 323 321 320 319 318 317 323 331 331 331 329 326 320 314 312 312
315 316 315 315 315 316 316 316 317 318 318 320 321 323 323 324 323 322 325 326 325 325 324 324 324 324 324 323 321 320 319 319 320 322 328 333 332 331 327 319 314 314 312
313 313 314 314 314 314 314 314 313 313 312 313 315 318 321 322 323 323 323 324 324 324 324 324 325 325 324 324 321 320 319 320 321 322 327 331 331 329 328 325 318 317 314
310 309 309 310 310 310 310 310 310 310 310 310 310 311 311 314 317 319 321 324 324 323 324 324 323 322 323 322 321 320 319 319 320 322 325 330 330 327 324 323 322 320 316
307 307 307 307 308 308 308 308 309 309 309 308 308 308 308 309 310 312 315 317 319 322 322 322 322 321 320 321 321 320 318 318 317 321 326 329 328 326 324 323 323 321 321
305 306 305 305 305 305 307 308 308 308 308 307 307 307 307 308 308 310 311 312 315 317 321 321 321 320 320 321 320 320 319 318 317 322 325 324 328 326 324 323 323 322 320
302 301 301 302 302 303 304 305 305 305 305 305 306 306 307 307 307 308 310 312 313 316 318 320 321 321 320 320 319 319 319 319 317 320 326 325 326 324 324 324 321 320 317
300 300 301 301 301 302 303 303 304 304 305 304 304 304 305 306 307 307 307 309 312 314 315 317 317 316 316 317 318 318 318 318 317 321 325 326 324 323 323 323 321 317 316
300 300 300 301 301 301 302 302 302 303 303 303 303 303 304 305 306 306 307 308 310 312 314 314 313 313 313 313 314 315 315 316 318 319 324 324 323 322 322 320 319 317 314
299 299 299 299 300 300 301 301 301 301 301 301 301 302 302 302 302 303 304 305 306 304 305 311 314 314 313 313 314 314 315 316 317 319 320 323 322 320 318 317 316 314 312
299 299 299 299 299 299 300 300 300 301 301 301 301 301 301 301 301 301 301 301 300 301 305 308 309 312 315 315 315 315 315 316 317 317 318 320 319 318 316 315 315 313 311
296 297 298 297 297 298 298 299 300 301 301 301 301 301 301 301 301 301 301 299 300 301 302 304 304 306 311 317 316 317 317 316 317 318 319 318 317 315 315 314 313 311 309
293 294 294 295 295 295 296 298 298 299 300 301 301 301 301 301 301 299 299 298 299 301 302 303 304 306 309 314 316 317 317 317 317 318 318 317 316 314 314 312 310 308 309
292 292 292 292 293 294 295 296 297 299 300 300 301 301 302 301 302 303 303 302 301 301 302 302 303 306 308 311 314 315 316 317 317 318 318 316 314 314 313 311 309 309 308
291 292 292 293 293 294 295 296 297 298 299 299 300 301 302 302 302 303 304 305 304 303 303 304 304 306 308 310 312 313 315 317 317 317 316 315 313 313 311 309 307 307 306
290 291 292 294 295 296 296 297 298 298 299 300 300 301 303 302 303 303 304 305 306 305 304 304 305 306 307 309 311 311 314 316 316 316 314 313 312 311 309 308 306 306 305
292 295 297 298 297 297 297 298 299 300 301 301 302 302 303 305 305 304 305 306 307 308 306 305 306 307 308 310 311 313 314 315 316 315 313 311 310 309 308 307 306 305 305
292 294 297 300 306 300 299 300 302 303 304 303 303 305 305 305 307 308 307 307 308 310 308 307 307 307 308 309 311 312 313 315 316 314 312 310 308 307 307 306 305 304 304
292 294 297 299 303 306 306 306 307 307 308 308 308 308 307 309 309 310 309 309 310 311 310 309 309 309 308 310 311 313 314 315 315 312 310 308 307 307 306 305 305 304 303
Wind_Speed
26 26 21 21 23 22 24 23 25 25 29 30 33 34 32 29 24 21 16 12 11 10 10 9 9 10 14 15 15 14 13 12 5 3 9 10 19 22 28 25 24 21 16
10 19 25 23 21 21 17 20 24 22 27 29 31 30 28 25 21 18 14 12 11 10 10 11 12 10 12 12 13 14 14 14 9 7 10 12 14 24 30 26 26 21 17
11 11 11 15 25 27 26 24 20 23 25 26 27 26 23 20 17 15 13 12 12 11 10 10 12 11 11 11 11 13 14 13 13 9 9 14 8 24 25 23 24 22 17
12 11 3 4 18 23 25 26 28 29 29 29 28 27 25 21 19 17 16 15 14 14 13 12 12 13 11 9 11 14 15 15 14 12 11 12 14 20 25 26 22 21 15
18 12 11 11 12 2 21 29 29 31 32 33 32 30 26 23 22 21 20 18 17 17 17 16 16 16 14 14 15 16 19 19 15 10 8 7 14 17 25 22 19 26 21
10 10 16 12 14 14 11 4 15 25 26 27 28 27 25 23 23 22 22 21 21 20 21 21 22 22 22 21 20 21 18 18 19 15 13 12 18 20 24 28 26 22 8
14 12 7 11 16 21 11 7 7 7 16 19 17 16 18 21 23 23 24 24 24 24 25 26 25 25 25 26 25 24 23 21 20 20 19 21 20 30 30 29 32 30 13
19 20 15 10 14 25 17 18 9 10 12 16 19 22 29 29 29 26 25 27 26 26 27 29 28 27 27 30 27 24 26 25 21 18 22 23 26 28 35 37 33 23 12
16 22 21 21 22 17 13 10 6 7 9 13 14 22 25 30 33 31 30 32 33 34 34 33 33 31 30 29 26 24 26 26 20 18 19 21 22 28 31 28 28 25 11
22 27 25 17 15 13 10 7 7 10 11 10 9 10 16 21 25 28 28 33 34 37 36 34 32 33 31 30 26 23 26 28 24 19 17 22 23 29 33 36 38 29 16
11 11 12 11 11 12 14 14 14 17 16 18 22 23 23 20 19 18 19 28 33 31 34 34 33 33 30 29 27 24 27 23 18 20 21 22 21 29 36 37 36 36 28
14 16 19 21 21 22 22 25 24 22 23 25 25 27 26 28 29 28 25 27 28 31 31 35 33 31 31 30 29 26 25 22 19 18 22 22 23 27 35 38 38 36 36
18 20 22 24 26 27 25 26 25 23 22 21 20 22 22 22 23 24 29 33 32 34 34 33 34 34 30 29 30 29 27 25 23 13 18 21 26 24 31 32 33 35 32
26 27 29 29 28 28 27 26 25 23 23 22 21 22 23 22 23 24 27 30 35 36 38 37 37 34 31 31 33 34 33 31 27 20 24 23 24 26 30 30 26 33 29
26 25 24 24 24 26 27 27 28 28 29 24 23 24 23 23 24 27 29 31 31 32 34 35 32 30 30 31 32 33 32 31 29 21 26 25 24 26 27 32 28 31 25
25 24 23 23 24 25 25 26 29 34 33 33 34 34 29 29 22 17 28 31 29 23 24 24 22 25 26 28 30 29 30 30 30 23 23 26 27 26 26 27 31 32 27
27 27 26 25 25 24 23 23 22 26 31 35 39 42 43 45 40 39 39 32 28 23 19 18 16 22 27 30 29 26 26 31 32 25 24 28 28 27 29 28 28 27 25
27 27 27 26 25 25 25 25 25 23 20 25 30 35 39 40 41 43 42 40 35 28 23 17 15 15 23 26 26 26 27 28 26 25 27 27 29 29 28 27 30 30 28
25 26 26 27 27 28 27 26 27 26 24 25 25 27 33 34 36 35 34 35 30 30 28 26 25 23 18 19 24 27 25 25 25 26 27 28 29 30 28 28 29 33 34
27 29 30 28 27 27 27 27 27 26 27 26 25 28 23 22 23 26 30 29 28 30 33 31 29 28 26 24 23 24 21 25 26 26 26 28 29 30 28 28 28 32 31
25 24 25 25 26 26 25 26 25 24 24 24 27 29 28 23 23 24 26 28 30 29 30 31 34 35 32 29 28 24 24 25 27 27 28 29 30 28 28 30 31 31 30
23 23 22 23 23 24 25 25 24 25 25 25 27 26 28 32 29 28 27 27 29 32 33 33 34 36 36 33 30 27 25 26 27 28 28 29 30 29 29 29 29 31 33
22 22 22 23 24 25 25 26 24 24 25 25 25 25 22 27 29 28 28 28 28 31 32 33 34 36 37 36 34 34 30 30 30 31 30 30 30 29 31 32 32 32 33
17 18 18 20 23 23 23 21 22 24 25 24 23 24 25 24 26 28 28 28 29 29 32 33 35 36 35 35 34 34 34 33 33 36 37 34 32 34 32 31 32 32 34
20 19 17 18 16 17 18 19 19 21 21 23 24 24 25 25 24 25 27 29 29 29 32 34 33 37 40 39 36 36 35 34 35 36 35 34 35 36 34 33 33 31 31
24 23 20 22 22 13 5 10 13 16 17 19 20 22 23 22 23 24 28 25 27 30 31 33 33 35 38 37 37 38 37 38 39 39 37 36 36 34 33 32 34 33 31
Wind_Direction
197 201 194 200 210 212 210 197 197 205 206 200 198 196 196 199 205 209 215 222 236 256 272 286 301 297 293 297 298 293 290 282 224 248 222 216 200 202 186 195 192 183 179
251 221 212 205 205 205 198 200 205 199 192 191 190 193 199 200 202 208 214 222 235 250 274 284 293 304 304 320 304 294 299 293 266 199 200 190 200 199 197 189 186 179 179
10 269 251 214 199 199 201 202 194 196 198 197 196 196 199 205 211 217 226 232 240 253 267 285 298 301 305 311 319 314 296 298 288 246 192 198 180 194 188 189 184 178 178
349 44 71 268 244 226 214 210 209 211 211 207 206 207 210 215 218 222 226 232 239 249 261 272 285 294 302 322 330 327 319 300 290 276 203 175 173 186 192 170 168 178 175
4 14 6 15 14 216 225 231 226 222 222 223 217 217 218 218 217 223 228 233 238 248 255 263 272 281 284 302 317 322 314 309 286 261 205 175 157 165 181 178 165 171 182
308 8 336 360 357 338 17 7 235 235 232 223 222 219 213 217 224 225 232 233 242 251 257 265 270 271 270 284 297 305 311 308 290 233 208 197 198 192 181 172 161 158 177
249 266 285 332 325 311 311 317 344 322 243 218 212 226 232 230 232 230 235 241 244 250 255 266 270 263 265 281 293 296 301 296 294 278 238 219 200 212 192 175 181 181 179
242 254 260 272 263 278 311 307 285 261 271 255 244 242 241 242 238 237 247 244 244 250 259 265 266 265 266 283 286 288 295 298 289 285 272 260 246 229 220 202 191 171 172
279 263 255 245 245 250 239 244 293 279 250 237 241 248 248 248 244 246 241 249 253 256 257 260 263 265 267 275 274 279 290 290 289 281 273 267 262 246 216 178 166 162 150
274 279 286 269 265 259 248 247 244 257 275 286 281 262 259 261 264 265 261 256 252 254 256 256 257 263 267 269 263 270 278 284 291 288 271 257 243 231 223 209 185 177 158
272 280 290 293 289 284 280 272 269 274 279 279 280 277 273 269 263 259 264 258 248 246 249 252 255 259 259 265 254 259 271 286 297 284 272 258 234 213 204 200 204 188 177
280 282 282 286 289 287 279 278 279 276 277 280 281 278 274 273 270 269 264 262 264 251 241 250 252 254 262 250 248 254 266 270 286 284 251 237 212 213 205 203 207 201 210
284 281 282 280 277 273 266 264 260 260 260 265 265 268 265 260 265 265 263 261 262 259 256 245 251 257 247 242 244 248 255 258 287 256 226 214 217 223 212 201 207 204 202
281 279 277 272 271 269 263 256 246 238 243 242 246 253 260 258 252 254 259 256 255 255 254 251 251 244 242 238 244 243 243 250 263 246 231 223 228 206 198 192 185 188 176
268 266 261 259 261 261 256 250 249 247 241 241 244 247 251 251 246 245 247 254 258 257 258 246 236 234 239 234 236 241 244 249 244 240 221 212 208 199 195 194 190 175 175
268 268 266 264 262 259 257 258 253 255 256 255 254 250 252 252 253 248 246 245 250 248 247 232 227 228 230 228 225 231 232 229 229 225 217 205 197 194 189 188 184 178 173
260 262 264 262 259 254 251 250 256 258 257 254 252 250 250 253 253 254 252 250 251 268 256 232 220 222 219 210 215 212 213 217 221 213 219 203 198 191 185 181 176 172 164
264 260 258 259 255 252 248 246 246 247 245 248 249 249 251 252 252 252 250 250 256 247 243 230 226 241 207 203 205 206 211 215 210 211 214 205 193 186 184 182 175 171 162
272 269 261 254 253 254 255 253 247 245 244 250 255 250 247 248 248 250 250 239 237 237 231 230 238 244 246 207 201 204 210 211 207 207 208 203 187 182 186 180 175 168 159
270 264 258 256 255 254 250 247 244 246 248 244 244 245 246 238 231 234 236 231 228 229 227 223 222 227 227 225 209 206 214 212 210 205 199 197 186 182 181 174 171 163 162
272 265 255 252 248 246 245 244 244 244 245 246 248 249 242 229 233 229 224 220 220 221 221 221 219 218 218 217 211 206 207 209 206 201 193 187 181 178 180 175 171 165 154
278 268 258 249 247 242 241 242 240 239 240 242 246 246 239 227 228 230 228 226 221 219 216 213 212 212 208 208 208 203 207 208 200 193 185 181 179 178 173 169 166 159 155
281 269 261 254 248 245 243 240 238 236 239 240 241 241 234 222 227 230 230 229 226 218 216 209 209 209 208 207 211 211 203 203 201 193 183 181 178 172 169 167 165 162 160
305 300 283 264 247 238 236 237 237 239 237 239 239 240 238 235 226 226 227 226 224 215 209 205 202 202 202 200 202 203 207 206 199 192 184 177 173 170 167 166 167 167 163
332 325 319 313 291 215 231 236 236 239 237 233 237 237 239 236 233 224 222 219 216 210 203 203 202 202 203 202 201 202 202 201 192 186 180 174 171 169 167 165 162 161 162
355 354 359 4 16 18 295 246 245 243 243 244 242 237 238 239 233 223 221 216 208 205 201 199 200 200 200 200 202 201 198 198 188 182 174 170 167 168 165 164 163 162 165